SCP
2 2 1 1 1 1 1 1 1 1 1 1 0 1 1 1 1 2 1 1 1 0 0 0 0 0 0 0 0 1 1 1 1 1 1 1 1 1 1 1 1 1 0
2 2 2 1 1 1 1 1 1 1 1 1 0 0 1 1 1 2 1 1 1 0 0 0 0 0 0 0 0 0 0 0 0 1 1 1 1 1 0 0 0 0 0
1 1 1 1 1 1 1 0 1 1 1 0 0 0 1 1 1 1 1 1 0 0 0 0 0 0 0 0 0 0 0 0 0 0 1 1 1 1 1 0 0 0 0
0 0 1 1 1 1 1 1 1 1 1 0 0 0 1 1 1 1 1 1 0 0 0 0 0 0 0 0 0 0 0 0 0 0 1 1 1 1 0 0 0 0 0
0 0 0 0 1 1 1 1 1 1 1 0 0 1 1 1 1 1 1 1 0 0 0 0 0 0 0 0 0 0 0 0 0 0 0 1 1 1 0 0 0 0 0
0 0 0 0 0 0 1 1 1 0 0 0 0 1 1 1 1 1 1 1 0 0 0 0 0 0 0 0 0 0 0 0 0 0 0 0 0 1 0 0 0 0 0
0 0 0 0 0 0 0 0 0 0 0 0 0 0 1 1 0 1 1 1 0 0 0 0 0 0 0 0 0 0 0 0 0 0 0 0 0 1 1 0 0 0 0
0 0 0 0 0 0 0 0 0 0 0 0 0 0 0 0 0 0 1 1 0 0 0 0 0 0 0 0 0 0 0 0 0 0 0 0 0 0 1 1 0 0 0
0 0 0 0 0 0 0 0 0 0 0 0 0 0 0 0 0 0 1 1 0 0 0 0 0 0 0 0 0 0 0 0 0 0 0 0 0 0 1 1 1 0 0
0 0 0 0 0 0 0 0 0 0 0 0 0 0 0 0 0 0 1 1 1 0 0 0 0 0 0 0 0 0 0 0 0 0 0 0 0 0 1 1 1 1 0
0 0 0 0 0 0 0 0 0 0 0 0 0 0 0 0 0 0 0 1 1 0 0 0 0 0 0 0 0 0 0 0 0 0 0 0 0 0 0 1 1 1 0
0 0 0 0 0 0 0 0 0 0 0 0 0 0 0 0 0 0 0 0 0 0 0 0 0 0 0 0 0 0 0 0 0 0 0 0 0 0 0 1 1 1 0
0 0 0 0 0 0 0 0 0 0 0 0 0 0 0 0 0 0 0 0 0 0 0 0 0 0 0 0 0 0 0 0 0 0 0 0 0 0 0 0 1 0 0
0 0 0 0 0 0 0 0 0 0 0 0 0 0 0 0 0 0 0 0 0 0 0 0 0 0 0 0 0 0 0 0 0 0 0 0 0 0 0 0 0 0 0
0 0 0 0 0 0 0 0 0 0 0 0 0 0 0 0 0 0 0 0 0 0 0 0 0 0 0 0 0 0 0 0 0 0 0 0 0 0 0 0 0 0 0
0 0 0 0 0 0 0 0 0 0 0 0 0 0 0 0 0 0 0 0 0 0 0 0 0 0 0 0 0 0 0 0 0 0 0 0 0 0 0 0 0 0 0
0 0 0 0 0 0 0 0 0 0 0 0 0 0 0 0 0 0 0 0 0 0 0 0 0 0 0 0 0 0 0 0 0 0 0 0 0 0 0 0 0 0 0
0 0 0 0 0 0 0 0 0 0 0 0 0 0 0 0 0 0 0 0 0 0 0 0 0 0 0 0 0 0 0 0 0 0 0 0 0 0 0 0 0 0 0
0 0 0 0 0 0 0 0 0 0 0 0 0 0 0 0 0 0 0 0 0 0 0 0 0 0 0 0 0 0 0 0 0 0 0 0 0 0 0 0 0 0 0
0 0 0 0 0 0 0 0 0 0 0 0 0 0 0 0 0 0 0 0 0 0 0 0 0 0 0 0 0 0 0 0 0 0 0 0 0 0 0 0 0 0 0
0 0 0 0 0 0 0 0 0 0 0 0 0 0 0 0 0 0 0 0 0 0 0 0 0 0 0 0 0 0 0 0 0 0 0 0 0 0 0 0 0 0 0
0 0 0 0 0 0 0 0 0 0 0 0 0 0 0 0 0 0 0 0 0 0 0 0 0 0 0 0 0 0 0 0 0 0 0 0 0 0 0 0 0 0 0
0 0 0 0 0 0 0 0 0 0 0 0 0 0 0 0 0 0 0 0 0 0 0 0 0 0 0 0 0 0 0 0 0 0 0 0 0 0 0 0 0 0 0
0 0 0 0 0 0 0 0 0 0 0 0 0 0 0 0 0 0 0 0 0 0 0 0 0 0 0 0 0 0 0 0 0 0 0 0 0 0 0 0 0 0 0
0 0 0 0 0 0 0 0 0 0 0 0 0 0 0 0 0 0 0 0 0 0 0 0 0 0 0 0 0 0 0 0 0 0 0 0 0 0 0 0 0 0 0
0 0 0 0 0 0 0 0 0 0 0 0 0 0 0 0 0 0 0 0 0 0 0 0 0 0 0 0 0 0 0 0 0 0 0 0 0 0 0 0 0 0 0
Wind_Speed
3 2 2 2 2 2 2 2 1 0 1 1 1 1 1 1 0 1 1 2 1 1 2 2 3 2 2 3 3 3 3 3 2 2 2 1 2 2 1 1 1 1 1
3 3 3 2 2 2 2 2 1 1 1 1 1 1 1 1 1 1 2 2 2 1 2 2 3 2 2 3 4 4 3 2 2 2 3 2 2 2 1 1 1 1 1
4 4 3 2 2 2 2 2 2 2 1 1 1 1 1 2 1 1 1 1 1 1 1 2 2 3 3 3 4 4 4 4 3 3 2 2 3 2 2 2 1 1 1
3 4 4 3 3 3 3 3 2 2 1 2 2 3 3 2 1 1 1 1 2 2 2 2 3 3 2 3 4 4 4 5 4 3 2 2 1 2 2 2 2 1 2
3 4 5 4 3 3 3 2 2 2 2 2 3 3 3 2 1 2 2 2 2 2 2 2 2 3 3 3 3 4 5 5 4 4 2 2 2 2 2 3 3 2 2
4 4 4 4 3 3 3 2 2 2 2 2 3 4 4 4 3 3 3 2 2 2 2 2 2 3 3 3 3 4 4 4 5 4 3 3 3 3 3 3 3 3 2
4 4 4 4 4 4 3 3 3 2 2 2 3 3 3 3 4 4 3 3 2 2 3 2 3 3 3 3 3 4 4 4 5 5 4 3 3 2 2 2 2 2 1
4 5 5 4 4 4 4 3 3 3 3 3 3 3 3 2 3 4 4 3 3 2 2 3 3 3 4 3 3 3 3 3 4 5 5 4 3 3 3 2 2 2 2
6 5 5 4 4 4 4 4 4 3 3 3 3 3 3 3 4 4 4 3 3 3 3 3 4 4 4 4 3 3 4 4 4 4 5 4 3 3 3 3 3 3 3
6 6 5 5 5 4 4 4 4 3 3 3 3 2 3 3 4 3 4 3 3 3 4 3 4 4 4 4 4 4 4 4 4 3 4 4 4 4 3 3 3 3 4
7 6 6 5 5 4 3 3 3 3 3 3 2 3 2 2 3 3 3 3 3 3 4 4 4 4 4 5 4 4 4 4 4 4 4 4 4 4 4 4 3 3 3
7 7 6 5 4 4 3 3 3 3 3 2 2 2 1 2 2 2 2 3 3 3 3 4 4 5 5 5 5 5 5 5 5 5 5 5 4 5 5 4 4 4 4
7 6 6 5 4 4 3 3 3 3 3 2 2 2 2 1 2 2 3 2 3 3 3 4 4 4 5 5 6 6 6 6 6 6 6 5 5 5 4 5 5 4 3
7 7 6 5 5 4 3 3 4 3 3 2 2 2 2 2 2 2 3 3 3 3 3 4 4 4 5 5 5 5 6 6 6 6 6 6 6 7 6 5 5 4 4
8 7 7 6 5 4 4 4 4 4 3 2 2 2 3 3 3 3 3 3 3 3 3 3 4 4 5 5 5 5 6 6 6 6 6 6 7 8 6 5 6 6 5
9 8 7 7 5 5 4 4 4 4 3 2 3 3 2 3 3 3 3 3 3 3 3 4 4 4 4 5 6 6 6 6 6 6 6 6 6 7 7 8 7 7 7
9 8 7 6 5 5 5 4 4 4 3 3 3 3 2 2 3 3 3 3 3 3 3 4 4 4 4 5 6 7 6 6 6 6 6 5 5 6 6 6 6 7 8
9 7 6 6 5 5 4 4 3 3 3 3 3 3 3 3 3 3 3 3 3 3 3 4 4 4 4 5 6 6 6 6 6 6 6 6 6 5 6 5 6 6 6
7 6 5 5 5 5 4 4 3 3 3 4 4 4 3 3 3 3 4 3 3 3 4 4 4 4 4 5 5 6 4 4 5 5 6 6 6 6 6 6 5 5 5
6 6 5 5 4 5 4 3 3 4 4 5 5 4 3 3 4 4 4 3 3 4 3 4 4 4 4 4 5 6 4 4 4 4 5 6 6 7 7 6 6 6 6
7 6 5 4 5 5 4 3 4 4 5 5 4 4 3 4 4 3 3 3 3 3 3 4 4 4 4 4 5 6 4 4 4 4 4 4 6 8 8 8 6 7 5
6 6 5 5 5 5 4 4 5 5 5 4 4 4 4 3 3 3 3 2 3 3 3 3 3 3 3 4 4 6 6 5 4 4 4 4 6 7 8 7 6 5 4
6 5 5 5 5 5 4 5 6 5 5 4 4 4 4 3 3 3 3 2 2 2 2 3 3 2 2 3 4 6 6 7 5 4 5 6 7 6 5 5 5 4 3
5 5 5 5 6 6 5 5 6 5 4 4 4 3 3 3 3 2 2 2 2 2 2 2 2 2 2 2 2 3 4 5 5 4 4 6 6 5 4 4 3 3 3
5 5 5 5 6 6 6 6 6 5 5 4 4 3 3 3 3 2 2 2 2 3 3 2 2 2 3 3 4 4 3 3 4 3 3 3 3 3 3 3 3 3 3
5 5 5 6 6 6 6 6 6 5 5 4 4 3 3 3 2 2 2 2 3 4 4 3 4 3 4 5 5 5 5 5 5 3 3 3 3 3 3 3 3 3 3
Wind_Direction
287 302 315 336 347 354 348 338 309 249 233 205 204 202 235 232 223 175 142 142 134 133 152 149 147 147 163 171 170 157 150 138 146 148 141 131 133 135 121 142 135 112 107
296 303 311 324 330 338 332 315 294 268 249 242 238 218 236 221 202 175 146 148 142 152 160 152 158 157 164 172 170 162 159 153 164 175 170 170 178 169 171 175 144 133 136
284 287 288 296 299 305 304 291 275 265 253 245 216 188 224 211 182 170 157 152 155 150 153 161 161 166 175 178 177 175 170 173 178 189 201 192 193 164 179 191 189 183 210
286 287 284 279 278 278 282 277 265 260 254 237 224 210 221 220 215 198 185 175 176 175 169 176 173 170 178 190 188 185 181 181 187 194 233 256 160 181 174 191 202 218 238
285 287 287 281 280 273 268 262 263 258 246 230 222 213 214 217 218 194 185 185 193 190 180 182 179 182 189 198 197 188 189 188 192 194 200 211 204 198 195 197 194 209 237
291 291 293 291 292 289 278 267 265 267 258 238 227 215 209 205 216 212 200 201 208 192 179 187 188 193 195 204 206 198 195 197 198 199 198 205 210 201 203 207 202 209 223
289 289 292 291 288 284 279 271 263 267 264 239 233 219 211 215 227 227 212 211 215 207 193 193 199 203 204 206 211 205 201 203 203 204 205 211 229 225 214 198 198 218 223
296 290 287 283 279 279 271 263 255 259 261 248 236 229 219 226 242 237 225 215 217 217 210 204 206 210 210 207 211 207 204 206 210 211 210 210 218 226 218 202 195 209 223
304 296 290 291 288 279 272 265 257 251 252 254 245 236 231 232 241 228 224 220 220 212 208 214 213 212 208 204 207 212 212 207 211 219 216 213 215 226 229 216 206 209 224
309 303 296 296 291 281 275 270 263 259 269 269 265 259 251 244 241 233 224 220 224 218 212 217 222 217 209 205 210 212 217 215 213 220 221 218 216 219 226 221 221 228 235
304 298 296 293 292 291 285 285 289 290 282 276 267 258 247 239 240 240 237 225 223 220 218 217 223 217 212 210 216 218 214 217 218 223 226 224 222 222 223 220 220 223 227
307 304 301 297 297 298 301 298 294 286 277 267 261 263 258 245 246 249 251 241 227 223 222 221 221 220 219 215 217 221 217 217 220 222 227 228 222 230 228 220 221 223 228
309 308 306 303 298 295 292 289 290 291 288 269 254 263 271 274 269 266 260 249 239 231 226 224 222 220 221 222 222 222 220 222 225 226 226 230 226 230 237 229 225 225 229
305 303 303 304 304 301 299 298 299 298 288 270 266 269 276 275 270 265 261 250 241 235 232 230 229 227 224 224 224 225 224 227 230 232 231 229 231 230 236 235 229 225 225
307 303 304 306 307 305 305 305 304 303 292 272 270 276 276 271 267 263 258 251 243 240 235 234 235 232 230 227 224 226 227 229 232 235 234 232 236 240 237 238 231 221 220
308 306 307 305 305 305 304 301 300 302 294 278 276 280 277 276 270 261 254 249 243 239 237 235 234 234 236 234 228 230 230 231 231 234 236 235 233 238 242 247 244 235 223
312 311 307 302 304 303 300 297 300 305 302 294 295 294 283 279 277 274 263 255 255 242 239 241 239 239 244 239 231 230 232 234 236 237 235 233 232 236 238 241 239 241 239
315 315 313 313 315 308 305 306 309 309 306 303 304 303 291 286 287 282 274 264 258 248 245 244 242 243 245 243 237 233 233 236 239 242 240 235 233 232 238 237 233 237 237
317 315 314 315 319 317 311 313 320 322 318 314 311 309 295 287 285 280 276 264 255 250 248 248 243 241 242 236 238 236 235 238 242 246 246 242 236 232 238 231 229 239 246
325 326 326 327 327 325 322 316 322 323 319 314 310 309 302 286 280 280 279 267 255 254 254 254 253 251 252 246 241 238 234 237 245 247 247 244 244 241 240 234 225 232 238
330 332 333 334 331 329 328 326 327 322 319 317 315 313 308 298 290 287 286 270 256 252 248 252 254 254 254 248 238 239 238 237 244 247 250 250 247 250 252 250 240 237 243
334 336 336 334 336 339 337 334 328 324 325 324 322 322 318 312 308 300 294 278 257 249 248 250 254 254 249 245 236 236 239 248 245 246 251 254 254 256 255 252 247 240 238
328 331 331 329 336 340 334 326 323 325 324 326 325 325 324 320 315 302 294 290 278 261 248 246 249 249 248 244 244 243 242 249 253 253 258 264 259 259 253 245 241 227 224
324 327 330 331 332 333 330 322 323 324 320 322 324 323 317 318 320 310 299 293 285 272 254 246 248 259 258 259 255 246 244 246 252 257 259 262 256 251 251 239 225 226 230
323 325 324 321 321 327 326 326 329 327 323 322 323 320 314 312 309 308 308 298 295 298 280 261 259 261 260 267 271 262 252 248 245 252 252 247 246 240 238 234 231 232 228
318 321 320 319 321 326 327 330 332 329 324 322 322 319 316 310 306 304 304 305 298 313 308 297 275 272 275 283 278 273 271 264 251 248 243 246 249 248 245 238 235 239 237